K5KVN-2 Weather Reports


time (UTC)temp
C
wind
direction
speed
KPH
gust
KPH
rain 1hr
cm
rain 24hr
cm
rain mn
cm
humidity
%
barometer
mb
20260504050438 19 198 9.7 19.3 0.00 0.00 0.00 56 1013.1
20260504045436 19 175 9.7 16.1 0.00 0.00 0.00 56 1012.9
20260504044436 19 225 9.7 16.1 0.00 0.00 0.00 56 1013.1
20260504043437 20 175 9.7 19.3 0.00 0.00 0.00 54 1013.2
20260504042436 20 207 9.7 19.3 0.00 0.00 0.00 54 1013.4
20260504041435 20 197 9.7 20.9 0.00 0.00 0.00 54 1013.3
20260504035918 20 188 11.3 19.3 0.00 0.00 0.00 54 1013.3
20260504034436 19 229 9.7 14.5 0.00 0.00 0.00 55 1013.3
20260504033438 20 178 9.7 16.1 0.00 0.00 0.00 54 1013.3
20260504032435 20 184 9.7 19.3 0.00 0.00 0.00 53 1013.4
20260504031920 20 162 9.7 16.1 0.00 0.00 0.00 53 1013.4
20260504030432 20 194 9.7 16.1 0.00 0.00 0.00 53 1013.4
20260504023916 20 209 11.3 16.1 0.00 0.00 0.00 54 1013.2
20260504022432 20 181 9.7 16.1 0.00 0.00 0.00 53 1013.2
20260504021431 20 182 9.7 16.1 0.00 0.00 0.00 54 1012.9
20260504020432 20 180 9.7 17.7 0.00 0.00 0.00 53 1012.9
20260504015433 20 176 8.0 16.1 0.00 0.00 0.00 54 1012.8
20260504014431 20 188 8.0 11.3 0.00 0.00 0.00 54 1012.8
20260504013436 20 174 6.4 11.3 0.00 0.00 0.00 53 1012.8
20260504012430 21 186 6.4 11.3 0.00 0.00 0.00 52 1012.8
20260504011430 21 192 6.4 11.3 0.00 0.00 0.00 50 1012.7
20260504005431 22 195 8.0 11.3 0.00 0.00 0.00 48 1012.6
20260504004428 22 192 6.4 9.7 0.00 0.00 0.00 47 1012.6
20260504003427 23 186 4.8 8.0 0.00 0.00 0.00 45 1012.6
20260504002427 23 227 4.8 12.9 0.00 0.00 0.00 42 1012.7
20260504001906 24 209 4.8 9.7 0.00 0.00 0.00 40 1012.8
20260504000424 24 215 4.8 11.3 0.00 0.00 0.00 39 1012.8
20260503235424 24 204 6.4 11.3 0.00 0.00 0.00 36 1013.1
20260503234424 25 199 6.4 17.7 0.00 0.00 0.00 35 1013.1
20260503233430 25 199 6.4 17.7 0.00 0.00 0.00 34 1013.2
20260503232420 25 196 8.0 19.3 0.00 0.00 0.00 31 1013.2
20260503231421 25 198 8.0 16.1 0.00 0.00 0.00 31 1013.3
20260503230907 25 250 9.7 16.1 0.00 0.00 0.00 31 1013.3
20260503225414 25 223 8.0 19.3 0.00 0.00 0.00 32 1013.4
20260503224413 25 194 11.3 25.7 0.00 0.00 0.00 40 1013.4
20260503223413 25 168 16.1 25.7 0.00 0.00 0.00 44 1013.3
20260503222413 25 188 17.7 30.6 0.00 0.00 0.00 42 1013.5
20260503221412 25 187 11.3 24.1 0.00 0.00 0.00 41 1013.6
20260503220852 25 227 8.0 17.7 0.00 0.00 0.00 40 1013.7
20260503215407 25 221 14.5 27.4 0.00 0.00 0.00 38 1013.8
20260503214407 25 191 16.1 35.4 0.00 0.00 0.00 41 1013.9
20260503213403 25 177 11.3 29.0 0.00 0.00 0.00 41 1014.0
20260503212406 25 200 14.5 29.0 0.00 0.00 0.00 44 1014.2
20260503211403 25 188 16.1 29.0 0.00 0.00 0.00 42 1014.3
20260503210404 25 221 12.9 25.7 0.00 0.00 0.00 43 1014.5
20260503205403 25 165 14.5 29.0 0.00 0.00 0.00 44 1014.8
20260503204401 25 180 9.7 17.7 0.00 0.00 0.00 44 1015.1
20260503203402 25 217 12.9 25.7 0.00 0.00 0.00 46 1015.1
20260503202401 25 184 14.5 27.4 0.00 0.00 0.00 47 1015.3
20260503201845 25 178 11.3 25.7 0.00 0.00 0.00 44 1015.4
20260503200358 25 205 12.9 25.7 0.00 0.00 0.00 44 1015.7
20260503195358 25 177 12.9 27.4 0.00 0.00 0.00 43 1015.7
20260503194837 25 174 14.5 25.7 0.00 0.00 0.00 49 1016.1
20260503193400 25 195 11.3 24.1 0.00 0.00 0.00 46 1016.3
20260503192359 24 188 9.7 20.9 0.00 0.00 0.00 46 1016.4
20260503191358 24 205 14.5 29.0 0.00 0.00 0.00 46 1016.5
20260503190358 23 192 14.5 27.4 0.00 0.00 0.00 47 1016.6
20260503185832 23 242 14.5 24.1 0.00 0.00 0.00 48 1016.7
20260503184357 23 184 9.7 20.9 0.00 0.00 0.00 46 1016.6
20260503183354 23 240 12.9 25.7 0.00 0.00 0.00 47 1016.7
20260503182353 23 210 12.9 27.4 0.00 0.00 0.00 48 1016.9
20260503181351 23 197 17.7 30.6 0.00 0.00 0.00 47 1017.0
20260503180352 23 204 16.1 27.4 0.00 0.00 0.00 44 1017.1
20260503175843 22 171 17.7 29.0 0.00 0.00 0.00 45 1017.3
20260503174353 22 182 14.5 25.7 0.00 0.00 0.00 46 1017.4
20260503173347 22 189 16.1 29.0 0.00 0.00 0.00 45 1017.5
20260503172345 21 184 20.9 35.4 0.00 0.00 0.00 46 1017.6
20260503171346 22 168 16.1 33.8 0.00 0.00 0.00 45 1017.8
20260503170345 21 187 17.7 30.6 0.00 0.00 0.00 47 1018.0
20260503150340 18 166 17.7 27.4 0.00 0.00 0.00 48 1019.3
20260503131336 11 128 1.6 4.8 0.00 0.00 0.00 66 1019.8
20260503130336 10 126 0.0 4.8 0.00 0.00 0.00 67 1019.8
20260503110321 5 134 0.0 0.0 0.00 0.00 0.00 88 1019.0
20260503090312 6 94 0.0 1.6 0.00 0.00 0.00 85 1019.5
20260503081310 6 108 0.0 0.0 0.00 0.00 0.00 87 1019.9
20260503080312 5 108 0.0 0.0 0.00 0.00 0.00 88 1019.9
20260503072804 6 108 0.0 0.0 0.00 0.00 0.00 86 1020.2
20260503071307 6 108 0.0 1.6 0.00 0.00 0.00 84 1020.2
20260503070307 6 108 0.0 0.0 0.00 0.00 0.00 83 1020.2
20260503060304 7 103 0.0 1.6 0.00 0.00 0.00 84 1020.7
20260503054740 7 198 1.6 4.8 0.00 0.00 0.00 82 1020.7